• In Hungary
  • List of Countries
  • For 7 days
  • Water Temperature
  • Satellite Maps
  • Weather Map
  • News
  • Weather Widgets
  • user-avatar
    Login

    Hourly Weather Puerto Natales

    Today, 12 December, Tuesday

    Time Temperature Precipitation Wind Pressure Humidity
    00:00 +4°C° 0 mm 4 mps 738 mmHg 85%
    01:00 +3°C° 0 mm 4 mps 738 mmHg 86%
    02:00 +4°C° 0 mm 4 mps 738 mmHg 85%
    03:00 +4°C° 0 mm 4 mps 739 mmHg 85%
    04:00 +4°C° 0 mm 4 mps 739 mmHg 84%
    05:00 +5°C° 0 mm 5 mps 739 mmHg 77%
    06:00 +6°C° 0 mm 5 mps 739 mmHg 71%
    07:00 +7°C° 0 mm 6 mps 739 mmHg 64%
    08:00 +8°C° 0 mm 6 mps 739 mmHg 60%
    09:00 +9°C° 0 mm 7 mps 739 mmHg 56%
    10:00 +10°C° 0 mm 7 mps 739 mmHg 52%
    11:00 +10°C° 0 mm 7 mps 739 mmHg 51%
    12:00 +11°C° 0 mm 8 mps 739 mmHg 49%
    13:00 +12°C° 0 mm 8 mps 738 mmHg 48%
    14:00 +12°C° 0 mm 9 mps 738 mmHg 48%
    15:00 +12°C° 0 mm 9 mps 738 mmHg 49%
    16:00 +12°C° 0 mm 9 mps 738 mmHg 49%
    17:00 +11°C° 0 mm 8 mps 738 mmHg 53%
    18:00 +10°C° 0 mm 8 mps 737 mmHg 57%
    19:00 +9°C° 0 mm 7 mps 737 mmHg 61%
    20:00 +8°C° 0 mm 6 mps 737 mmHg 64%
    21:00 +7°C° 0 mm 5 mps 737 mmHg 66%
    22:00 +6°C° 0 mm 5 mps 737 mmHg 69%
    23:00 +6°C° 0 mm 5 mps 736 mmHg 68%

    Tomorrow, 13 December, Wednesday

    Time Temperature Precipitation Wind Pressure Humidity
    00:00 +6°C° 0 mm 5 mps 736 mmHg 68%
    01:00 +5°C° 0 mm 5 mps 735 mmHg 67%
    02:00 +5°C° 0 mm 5 mps 735 mmHg 66%
    03:00 +3°C° 0 mm 5 mps 734 mmHg 65%
    04:00 +4°C° 0 mm 4 mps 734 mmHg 64%
    05:00 +6°C° 0 mm 5 mps 733 mmHg 61%
    06:00 +7°C° 0 mm 6 mps 733 mmHg 58%
    07:00 +9°C° 0 mm 7 mps 732 mmHg 56%
    08:00 +9°C° 0.1 mm 6 mps 731 mmHg 58%
    09:00 +9°C° 0.1 mm 5 mps 731 mmHg 60%
    10:00 +10°C° 0.1 mm 5 mps 730 mmHg 63%
    11:00 +11°C° 0.3 mm 4 mps 729 mmHg 67%
    12:00 +11°C° 0.3 mm 4 mps 728 mmHg 71%
    13:00 +11°C° 0.3 mm 4 mps 727 mmHg 75%
    14:00 +11°C° 0.2 mm 6 mps 727 mmHg 72%
    15:00 +11°C° 0.2 mm 8 mps 726 mmHg 68%
    16:00 +12°C° 0.2 mm 10 mps 726 mmHg 64%
    17:00 +11°C° 0.5 mm 9 mps 726 mmHg 65%
    18:00 +10°C° 0.5 mm 9 mps 726 mmHg 67%
    19:00 +9°C° 0.5 mm 8 mps 726 mmHg 68%
    20:00 +7°C° 0.8 mm 8 mps 726 mmHg 73%
    21:00 +5°C° 0.8 mm 8 mps 727 mmHg 78%
    22:00 +4°C° 0.8 mm 8 mps 728 mmHg 83%
    23:00 +4°C° 0.1 mm 7 mps 728 mmHg 84%

    Day after tomorrow, 14 December, Thursday

    Time Temperature Precipitation Wind Pressure Humidity
    00:00 +3°C° 0.1 mm 7 mps 728 mmHg 84%
    01:00 +3°C° 0.1 mm 6 mps 728 mmHg 85%
    02:00 +3°C° 0.8 mm 7 mps 728 mmHg 85%
    03:00 +3°C° 0.8 mm 7 mps 728 mmHg 86%
    04:00 +3°C° 0.8 mm 7 mps 728 mmHg 86%
    05:00 +4°C° 0.2 mm 8 mps 728 mmHg 81%
    06:00 +4°C° 0.2 mm 8 mps 729 mmHg 76%
    07:00 +5°C° 0.2 mm 8 mps 730 mmHg 70%
    08:00 +6°C° 0.3 mm 9 mps 730 mmHg 68%
    09:00 +7°C° 0.3 mm 9 mps 730 mmHg 65%
    10:00 +7°C° 0.3 mm 9 mps 730 mmHg 62%
    11:00 +7°C° 0.5 mm 11 mps 730 mmHg 62%
    12:00 +7°C° 0.5 mm 12 mps 730 mmHg 62%
    13:00 +7°C° 0.5 mm 13 mps 730 mmHg 62%
    14:00 +7°C° 0.3 mm 12 mps 731 mmHg 61%
    15:00 +7°C° 0.3 mm 12 mps 731 mmHg 59%
    16:00 +6°C° 0.3 mm 11 mps 732 mmHg 58%
    17:00 +5°C° 0.3 mm 10 mps 732 mmHg 63%
    18:00 +5°C° 0.3 mm 9 mps 733 mmHg 68%
    19:00 +4°C° 0.3 mm 8 mps 733 mmHg 73%
    20:00 +4°C° 0.2 mm 7 mps 733 mmHg 77%
    21:00 +3°C° 0.2 mm 6 mps 732 mmHg 81%
    22:00 +3°C° 0.2 mm 5 mps 732 mmHg 85%
    23:00 +4°C° 0.1 mm 4 mps 731 mmHg 85%

    15 December, Friday

    Time Temperature Precipitation Wind Pressure Humidity
    00:00 +3°C° 0.1 mm 4 mps 730 mmHg 86%
    01:00 +3°C° 0.1 mm 3 mps 729 mmHg 86%
    02:00 +3°C° 0.1 mm 3 mps 728 mmHg 85%
    03:00 +4°C° 0.1 mm 2 mps 727 mmHg 84%
    04:00 +3°C° 0.1 mm 2 mps 726 mmHg 84%
    05:00 +4°C° 0.5 mm 2 mps 725 mmHg 83%
    06:00 +5°C° 0.5 mm 2 mps 724 mmHg 83%
    07:00 +5°C° 0.5 mm 2 mps 723 mmHg 83%
    08:00 +6°C° 0.7 mm 2 mps 722 mmHg 82%
    09:00 +7°C° 0.7 mm 3 mps 721 mmHg 81%
    10:00 +7°C° 0.7 mm 3 mps 720 mmHg 81%
    11:00 +7°C° 0.7 mm 5 mps 719 mmHg 79%
    12:00 +7°C° 0.7 mm 8 mps 719 mmHg 77%
    13:00 +7°C° 0.7 mm 11 mps 719 mmHg 75%
    14:00 +7°C° 0.2 mm 11 mps 719 mmHg 70%
    15:00 +5°C° 0.2 mm 12 mps 719 mmHg 66%
    16:00 +5°C° 0.2 mm 13 mps 719 mmHg 61%
    17:00 +4°C° 0.5 mm 12 mps 718 mmHg 66%
    18:00 +3°C° 0.5 mm 12 mps 718 mmHg 70%
    19:00 +3°C° 0.5 mm 12 mps 717 mmHg 75%
    20:00 +2°C° 0.6 mm 10 mps 718 mmHg 77%
    21:00 +2°C° 0.6 mm 9 mps 718 mmHg 79%
    22:00 +2°C° 0.6 mm 8 mps 718 mmHg 82%
    23:00 +3°C° 0.2 mm 7 mps 719 mmHg 84%

    16 December, Saturday

    Time Temperature Precipitation Wind Pressure Humidity
    00:00 +3°C° 0.2 mm 6 mps 720 mmHg 86%
    01:00 +3°C° 0.2 mm 6 mps 721 mmHg 89%
    02:00 +2°C° 0.1 mm 6 mps 722 mmHg 87%
    03:00 +1°C° 0.1 mm 6 mps 724 mmHg 86%
    04:00 +1°C° 0.1 mm 5 mps 725 mmHg 85%
    05:00 +2°C° 0.1 mm 6 mps 726 mmHg 79%
    06:00 +2°C° 0.1 mm 7 mps 727 mmHg 74%
    07:00 +2°C° 0.1 mm 8 mps 728 mmHg 69%
    08:00 +3°C° 0.2 mm 9 mps 728 mmHg 66%
    09:00 +3°C° 0.2 mm 9 mps 728 mmHg 63%
    10:00 +5°C° 0.2 mm 9 mps 729 mmHg 59%
    11:00 +5°C° 0.3 mm 9 mps 729 mmHg 59%
    12:00 +5°C° 0.3 mm 9 mps 730 mmHg 58%
    13:00 +5°C° 0.3 mm 8 mps 730 mmHg 58%
    14:00 +5°C° 0.5 mm 8 mps 731 mmHg 61%
    15:00 +5°C° 0.5 mm 7 mps 731 mmHg 65%
    16:00 +4°C° 0.5 mm 6 mps 732 mmHg 68%
    17:00 +4°C° 0.4 mm 7 mps 733 mmHg 71%
    18:00 +2°C° 0.4 mm 8 mps 734 mmHg 75%
    19:00 +2°C° 0.4 mm 9 mps 734 mmHg 78%
    20:00 +2°C° 0.1 mm 7 mps 735 mmHg 81%
    21:00 +2°C° 0.1 mm 6 mps 735 mmHg 84%
    22:00 +1°C° 0.1 mm 5 mps 735 mmHg 86%
    23:00 +1°C° 0.1 mm 5 mps 735 mmHg 86%

    17 December, Sunday

    Time Temperature Precipitation Wind Pressure Humidity
    00:00 +2°C° 0.1 mm 5 mps 735 mmHg 86%
    01:00 +2°C° 0.1 mm 5 mps 734 mmHg 86%
    02:00 +3°C° 0.2 mm 6 mps 735 mmHg 86%
    03:00 +4°C° 0.2 mm 7 mps 735 mmHg 86%
    04:00 +5°C° 0.2 mm 7 mps 735 mmHg 86%
    05:00 +6°C° 0 mm 9 mps 735 mmHg 83%
    06:00 +6°C° 0 mm 10 mps 735 mmHg 81%
    07:00 +7°C° 0 mm 11 mps 735 mmHg 78%
    08:00 +8°C° 0 mm 11 mps 735 mmHg 76%
    09:00 +8°C° 0 mm 12 mps 735 mmHg 73%
    10:00 +8°C° 0 mm 12 mps 734 mmHg 71%
    11:00 +9°C° 0 mm 12 mps 734 mmHg 70%
    12:00 +9°C° 0 mm 12 mps 734 mmHg 69%
    13:00 +9°C° 0 mm 12 mps 734 mmHg 68%
    14:00 +9°C° 0.1 mm 12 mps 734 mmHg 69%
    15:00 +8°C° 0.1 mm 12 mps 733 mmHg 71%
    16:00 +8°C° 0.1 mm 12 mps 733 mmHg 72%
    17:00 +8°C° 0 mm 11 mps 733 mmHg 72%
    18:00 +7°C° 0 mm 11 mps 733 mmHg 72%
    19:00 +7°C° 0 mm 11 mps 733 mmHg 72%
    20:00 +7°C° 0.1 mm 10 mps 733 mmHg 73%
    21:00 +6°C° 0.1 mm 10 mps 733 mmHg 74%
    22:00 +6°C° 0.1 mm 9 mps 733 mmHg 75%
    23:00 +5°C° 0.1 mm 9 mps 733 mmHg 75%
    Show more